"startDT [UTC]","vpos","CH4 [ppm]","stdev(CH4) [ppm]","CO2 [ppm]","stdev(CO2) [ppm]","H2O [ppm]","stdev(H2O)","p_LGR [torr]","T_LGR [C]","mt1_LGR [us]","mt2_LGR [us]","T_ECpre [C]","T_EC1 [C]","T_EC2 [C]","p_inlet [hPa]","p_in [hPa]","p_out [hPa]","T_inlet [C]","RH_inlet [%]","dwpt_inlet [C]","T_vent [C]","RH_vent [%]","dwpt_vent [C]","flow_vent [l min-1]","flow_inlet [l min-1]","dwpt_sample [C]","T_room [C]"
2012-08-03 00:00:00,0.0,1.9092,0.0013,380.44,0.46,40.6,29.9,138.05,31.77,24.64,36.40,0.95,-26.42,16.65,-47,562,-923,26.7,22.2,3.3,26.7,1.4,-30.4,5.73,2.37,-27.5,30.7
2012-08-03 00:01:00,0.0,1.9086,0.0011,380.11,0.40,45.4,29.8,138.05,31.77,24.65,36.40,0.95,-26.42,16.75,-47,562,-923,26.8,22.5,3.6,26.7,1.4,-30.4,5.73,2.39,-27.5,30.7
2012-08-03 00:02:00,0.0,1.9089,0.0010,380.75,0.36,49.1,32.6,138.05,31.78,24.65,36.39,0.94,-26.41,16.86,-47,562,-923,26.7,21.6,3.0,26.7,1.4,-30.4,5.73,2.35,-27.5,30.7
2012-08-03 00:03:00,0.0,1.9083,0.0011,380.76,0.41,36.8,30.6,138.05,31.78,24.65,36.40,0.92,-26.40,16.95,-47,562,-923,26.8,21.7,3.1,26.7,1.4,-30.5,5.73,2.37,-27.5,30.7
2012-08-03 00:04:00,0.0,1.9091,0.0011,380.62,0.52,35.5,31.7,138.05,31.78,24.65,36.40,0.93,-26.40,17.04,-47,562,-923,26.8,22.0,3.3,26.7,1.4,-30.7,5.73,2.39,-27.5,30.7
2012-08-03 00:05:00,0.0,1.9086,0.0009,380.43,0.41,48.7,30.5,138.05,31.79,24.65,36.40,0.93,-26.39,17.14,-47,562,-923,26.8,22.0,3.3,26.7,1.4,-30.6,5.73,2.35,-27.5,30.7
2012-08-03 00:06:00,0.0,1.9090,0.0012,380.57,0.37,50.3,34.7,138.05,31.79,24.64,36.40,0.92,-26.38,17.21,-47,562,-923,26.8,21.9,3.2,26.7,1.4,-30.6,5.73,2.36,-27.5,30.8
2012-08-03 00:07:00,0.0,1.9094,0.0011,380.53,0.42,40.4,38.1,138.05,31.79,24.64,36.39,0.93,-26.40,17.29,-47,562,-923,26.8,22.1,3.3,26.7,1.4,-30.7,5.73,2.39,-27.5,30.7
2012-08-03 00:08:00,0.0,1.9086,0.0011,380.74,0.41,41.7,30.0,138.05,31.79,24.65,36.40,0.93,-26.39,17.38,-47,562,-923,26.8,21.6,3.0,26.7,1.4,-30.6,5.73,2.35,-27.5,30.7
2012-08-03 00:09:00,0.0,1.9089,0.0010,380.60,0.43,37.7,35.2,138.05,31.80,24.65,36.40,0.91,-26.39,17.44,-47,562,-923,26.8,21.9,3.2,26.7,1.4,-30.6,5.73,2.37,-27.5,30.7
2012-08-03 00:10:00,0.0,1.9086,0.0013,380.49,0.43,46.8,34.5,138.05,31.80,24.65,36.39,0.91,-26.38,17.52,-47,562,-923,26.8,22.3,3.5,26.7,1.4,-30.6,5.73,2.39,-27.5,30.7
2012-08-03 00:11:00,0.0,1.9088,0.0012,380.56,0.44,40.0,29.6,138.05,31.80,24.65,36.39,0.95,-26.38,17.59,-47,562,-923,26.8,21.8,3.2,26.7,1.4,-30.6,5.73,2.36,-27.5,30.7
2012-08-03 00:12:00,0.0,1.9084,0.0010,380.73,0.41,50.1,33.4,138.05,31.80,24.65,36.40,0.92,-26.37,17.65,-47,562,-923,26.8,21.7,3.1,26.7,1.4,-30.6,5.73,2.36,-27.5,30.7
2012-08-03 00:13:00,0.0,1.9088,0.0010,380.29,0.42,51.4,35.2,138.05,31.81,24.65,36.40,0.94,-26.37,17.71,-47,562,-923,26.8,22.2,3.4,26.7,1.4,-30.6,5.73,2.39,-27.5,30.7
2012-08-03 00:14:00,0.0,1.9094,0.0011,380.64,0.55,44.0,34.1,138.05,31.81,24.64,36.40,0.93,-26.37,17.77,-47,562,-923,26.8,21.3,2.9,26.8,1.4,-30.6,5.73,2.37,-27.5,30.7
2012-08-03 00:15:00,0.0,1.9084,0.0011,380.87,0.51,40.9,30.3,138.05,31.81,24.65,36.40,0.94,-26.36,17.83,-47,562,-923,26.8,21.1,2.7,26.8,1.4,-30.6,5.73,2.35,-27.5,30.7
2012-08-03 00:16:00,0.0,1.9085,0.0009,380.59,0.48,49.8,36.0,138.05,31.81,24.65,36.40,0.94,-26.36,17.88,-47,562,-923,26.8,21.8,3.2,26.7,1.4,-30.6,5.73,2.39,-27.5,30.7
2012-08-03 00:17:00,0.0,1.9085,0.0010,380.72,0.47,48.2,34.2,138.05,31.82,24.65,36.39,0.94,-26.35,17.93,-47,562,-923,26.8,21.6,3.0,26.8,1.4,-30.6,5.73,2.38,-27.5,30.7
2012-08-03 00:18:00,0.0,1.9089,0.0010,380.73,0.42,48.7,37.1,138.05,31.82,24.65,36.40,0.94,-26.36,17.99,-47,562,-923,26.8,21.1,2.7,26.8,1.4,-30.6,5.73,2.35,-27.5,30.7
2012-08-03 00:19:00,0.0,1.9080,0.0012,380.83,0.46,55.9,33.8,138.05,31.82,24.65,36.39,0.93,-26.35,18.04,-47,562,-923,26.8,21.2,2.8,26.8,1.4,-30.6,5.73,2.38,-27.5,30.7
2012-08-03 00:20:00,0.0,1.9085,0.0011,380.88,0.45,42.5,30.1,138.05,31.82,24.65,36.40,0.94,-26.35,18.07,-47,562,-923,26.8,21.1,2.7,26.8,1.4,-30.6,5.73,2.38,-27.5,30.7
2012-08-03 00:21:00,0.0,1.9083,0.0010,380.70,0.46,45.1,32.2,138.05,31.82,24.65,36.40,0.95,-26.37,18.13,-47,562,-923,26.8,21.3,2.8,26.8,1.4,-30.6,5.73,2.35,-27.5,30.8
2012-08-03 00:22:00,0.0,1.9085,0.0010,380.67,0.42,47.9,32.9,138.05,31.82,24.65,36.39,0.95,-26.35,18.16,-47,562,-923,26.8,21.5,2.9,26.8,1.4,-30.6,5.73,2.38,-27.5,30.7
2012-08-03 00:23:00,0.0,1.9097,0.0012,380.42,0.49,41.1,28.1,138.05,31.83,24.65,36.40,0.94,-26.34,18.21,-47,562,-923,26.8,21.6,3.0,26.8,1.4,-30.6,5.73,2.39,-27.4,30.7
2012-08-03 00:24:00,0.0,1.9101,0.0009,380.10,0.43,40.5,33.2,138.05,31.83,24.65,36.40,0.95,-26.34,18.23,-47,562,-923,26.8,21.9,3.2,26.8,1.4,-30.6,5.73,2.35,-27.4,30.7
2012-08-03 00:25:00,0.0,1.9078,0.0013,380.67,0.43,53.3,33.9,138.05,31.83,24.65,36.40,0.96,-26.34,18.28,-47,562,-923,26.9,21.2,2.8,26.8,1.4,-30.6,5.73,2.37,-27.4,30.8
2012-08-03 00:26:00,0.0,1.9081,0.0012,380.82,0.41,43.1,30.6,138.05,31.83,24.65,36.39,0.94,-26.33,18.32,-47,562,-923,26.9,21.4,3.0,26.8,1.4,-30.6,5.73,2.39,-27.4,30.7
2012-08-03 00:27:00,0.0,1.9084,0.0011,380.28,0.47,43.7,33.2,138.05,31.83,24.64,36.39,0.95,-26.33,18.35,-47,562,-923,26.8,21.8,3.2,26.8,1.4,-30.6,5.73,2.36,-27.4,30.7
2012-08-03 00:28:00,0.0,1.9081,0.0010,380.66,0.47,56.6,36.8,138.05,31.84,24.65,36.40,0.94,-26.33,18.39,-47,562,-923,26.8,21.0,2.6,26.8,1.4,-30.6,5.73,2.37,-27.4,30.7
2012-08-03 00:29:00,0.0,1.9076,0.0012,380.78,0.48,42.0,37.3,138.05,31.84,24.65,36.40,0.95,-26.32,18.42,-47,562,-923,26.9,20.6,2.4,26.8,1.4,-30.6,5.73,2.39,-27.4,30.7
2012-08-03 00:30:00,0.0,1.9072,0.0013,381.14,0.37,47.9,31.6,138.05,31.84,24.65,36.40,0.93,-26.32,18.45,-47,562,-923,26.9,20.0,2.0,26.8,1.4,-30.6,5.73,2.36,-27.4,30.7
2012-08-03 00:31:00,0.0,1.9077,0.0013,381.26,0.45,42.9,31.9,138.05,31.84,24.64,36.40,0.92,-26.33,18.48,-47,562,-923,26.9,19.7,1.8,26.8,1.4,-30.5,5.73,2.36,-27.4,30.8
2012-08-03 00:32:00,0.0,1.9068,0.0013,381.24,0.40,44.4,36.2,138.05,31.85,24.65,36.40,0.92,-26.32,18.52,-47,562,-923,26.9,19.8,1.8,26.8,1.4,-30.6,5.73,2.39,-27.4,30.8
2012-08-03 00:33:00,0.0,1.9073,0.0012,381.02,0.43,47.8,30.7,138.05,31.85,24.65,36.40,0.94,-26.32,18.54,-47,562,-923,26.9,20.2,2.2,26.8,1.4,-30.6,5.73,2.36,-27.4,30.8
2012-08-03 00:34:00,0.0,1.9072,0.0012,381.11,0.45,53.7,31.4,138.05,31.85,24.65,36.39,0.92,-26.31,18.56,-47,562,-923,26.9,20.5,2.3,26.8,1.4,-30.5,5.73,2.35,-27.4,30.8
2012-08-03 00:35:00,0.0,1.9073,0.0010,381.18,0.47,51.6,31.5,138.05,31.85,24.65,36.40,0.94,-26.31,18.59,-47,562,-923,26.9,19.9,1.9,26.8,1.4,-30.6,5.73,2.39,-27.4,30.9
2012-08-03 00:36:00,0.0,1.9077,0.0010,381.22,0.39,53.3,33.9,138.05,31.86,24.64,36.40,0.92,-26.31,18.61,-47,562,-923,26.9,19.8,1.9,26.8,1.4,-30.6,5.73,2.37,-27.4,30.9
2012-08-03 00:37:00,0.0,1.9077,0.0013,381.25,0.42,50.5,31.4,138.05,31.86,24.65,36.39,0.94,-26.31,18.64,-47,562,-923,26.9,19.9,2.0,26.8,1.4,-30.6,5.73,2.35,-27.4,30.8
2012-08-03 00:38:00,0.0,1.9075,0.0011,381.12,0.40,42.4,29.0,138.05,31.86,24.65,36.40,0.94,-26.30,18.66,-47,562,-923,26.9,20.7,2.5,26.8,1.4,-30.6,5.73,2.38,-27.4,30.7
2012-08-03 00:39:00,0.0,1.9079,0.0010,380.81,0.47,58.9,35.5,138.05,31.86,24.65,36.39,0.95,-26.30,18.68,-47,562,-923,26.9,20.8,2.6,26.8,1.4,-30.6,5.73,2.38,-27.4,30.7
2012-08-03 00:40:00,0.0,1.9080,0.0011,380.72,0.40,46.7,34.0,138.05,31.87,24.65,36.40,0.93,-26.30,18.70,-47,562,-923,26.9,20.4,2.3,26.8,1.4,-30.5,5.73,2.35,-27.4,30.7
2012-08-03 00:41:00,0.0,1.9081,0.0010,380.86,0.44,47.3,31.6,138.05,31.87,24.65,36.39,0.94,-26.29,18.72,-47,562,-923,26.9,21.2,2.8,26.8,1.4,-30.6,5.73,2.38,-27.4,30.8
2012-08-03 00:42:00,0.0,1.9082,0.0011,380.40,0.46,54.7,33.0,138.05,31.87,24.65,36.40,0.94,-26.29,18.74,-47,562,-923,26.9,21.9,3.3,26.8,1.4,-30.5,5.73,2.39,-27.4,30.8
2012-08-03 00:43:00,0.0,1.9079,0.0012,380.65,0.46,43.4,33.4,138.05,31.87,24.65,36.40,0.93,-26.29,18.75,-47,562,-923,26.9,20.9,2.6,26.8,1.4,-30.6,5.73,2.35,-27.4,30.7
2012-08-03 00:44:00,0.0,1.9077,0.0012,380.82,0.47,55.2,32.5,138.05,31.87,24.65,36.40,0.94,-26.29,18.77,-47,562,-923,26.9,20.8,2.6,26.9,1.4,-30.6,5.73,2.37,-27.4,30.7
2012-08-03 00:45:00,0.0,1.9083,0.0010,380.75,0.44,53.6,34.0,138.05,31.87,24.65,36.40,0.93,-26.29,18.79,-47,562,-923,26.9,20.9,2.7,26.8,1.4,-30.5,5.73,2.39,-27.4,30.7
2012-08-03 00:46:00,0.0,1.9086,0.0011,380.64,0.40,55.1,33.0,138.05,31.87,24.65,36.40,0.94,-26.29,18.81,-47,562,-923,26.9,21.2,2.9,26.8,1.4,-30.6,5.73,2.37,-27.4,30.6
2012-08-03 00:47:00,0.0,1.9085,0.0012,380.68,0.39,51.1,32.6,138.05,31.87,24.65,36.40,0.94,-26.29,18.82,-47,562,-923,26.9,21.1,2.7,26.8,1.4,-30.5,5.73,2.36,-27.4,30.6
2012-08-03 00:48:00,0.0,1.9091,0.0012,380.64,0.41,45.7,33.6,138.05,31.87,24.65,36.40,1.00,-26.28,18.77,-47,563,-923,26.9,21.1,2.7,26.8,1.4,-30.5,5.73,2.38,-27.4,30.6
2012-08-03 00:49:00,0.0,1.9089,0.0011,380.64,0.38,45.3,30.3,138.05,31.87,24.64,36.40,1.15,-26.28,17.51,-47,562,-923,26.9,21.2,2.9,26.9,1.4,-30.6,5.73,2.39,-27.4,30.6
2012-08-03 00:50:00,0.0,1.9089,0.0014,380.50,0.43,50.7,29.9,138.05,31.87,24.65,36.40,1.08,-26.28,15.29,-47,562,-923,26.9,21.2,2.8,26.8,1.4,-30.6,5.73,2.36,-27.4,30.6
2012-08-03 00:51:00,0.0,1.9086,0.0012,380.59,0.46,57.2,31.6,138.05,31.87,24.65,36.40,1.02,-26.28,12.92,-47,562,-923,26.9,21.1,2.8,26.9,1.4,-30.6,5.73,2.36,-27.4,30.6
2012-08-03 00:52:00,0.0,1.9084,0.0011,380.22,0.36,44.9,30.6,138.05,31.87,24.65,36.40,1.07,-26.31,10.57,-47,563,-923,26.9,22.1,3.4,26.8,1.4,-30.6,5.73,2.38,-27.4,30.6
2012-08-03 00:53:00,0.0,1.9093,0.0010,380.57,0.38,46.8,37.1,138.05,31.87,24.65,36.39,1.04,-26.32,8.29,-47,563,-923,26.9,21.2,2.9,26.8,1.4,-30.5,5.73,2.39,-27.4,30.5
2012-08-03 00:54:00,0.0,1.9087,0.0011,380.67,0.37,43.7,31.6,138.05,31.87,24.65,36.39,0.99,-26.33,6.11,-47,563,-923,26.9,21.1,2.8,26.8,1.4,-30.5,5.73,2.37,-27.4,30.5
2012-08-03 00:55:00,0.0,1.9089,0.0011,380.60,0.46,44.8,30.4,138.05,31.87,24.65,36.39,1.08,-26.34,4.04,-47,563,-923,26.9,21.2,2.9,26.8,1.4,-30.6,5.73,2.36,-27.4,30.5
2012-08-03 00:56:00,0.0,1.9085,0.0011,380.65,0.41,51.7,33.3,138.05,31.87,24.65,36.39,1.08,-26.34,2.07,-47,563,-924,26.9,21.3,2.9,26.8,1.4,-30.6,5.73,2.37,-27.5,30.5
2012-08-03 00:57:00,0.0,1.9087,0.0009,380.44,0.43,42.8,34.8,138.05,31.87,24.65,36.40,0.98,-26.35,0.21,-47,563,-923,26.9,21.3,2.9,26.8,1.4,-30.6,5.73,2.38,-27.5,30.5
2012-08-03 00:58:00,0.0,1.9085,0.0011,380.52,0.40,36.3,34.6,138.05,31.87,24.65,36.39,1.05,-26.36,-1.56,-47,563,-923,26.9,21.5,3.0,26.8,1.4,-30.6,5.73,2.39,-27.5,30.5
2012-08-03 00:59:00,0.0,1.9094,0.0014,380.12,0.39,48.8,36.1,138.05,31.86,24.65,36.39,1.09,-26.36,-3.17,-47,563,-923,26.8,22.4,3.6,26.8,1.4,-30.6,5.73,2.39,-27.5,30.4
2012-08-03 01:00:00,0.0,1.9107,0.0010,379.77,0.43,39.7,32.4,138.05,31.86,24.65,36.39,0.99,-26.36,-4.25,-47,563,-923,26.9,22.7,3.8,26.8,1.4,-30.6,5.73,2.38,-27.5,30.4
2012-08-03 01:01:00,0.0,1.9109,0.0010,379.32,0.43,30.3,25.4,138.05,31.86,24.65,36.40,1.00,-26.37,-5.56,-47,563,-923,26.8,22.7,3.7,26.8,1.4,-30.6,5.73,2.37,-27.5,30.4
2012-08-03 01:02:00,0.0,1.9120,0.0015,379.02,0.57,35.8,29.5,138.06,31.86,24.64,36.39,1.09,-26.38,-6.85,-47,563,-923,26.8,23.5,4.2,26.8,1.4,-30.6,5.73,2.37,-27.6,30.4
2012-08-03 01:03:00,0.0,1.9107,0.0012,379.24,0.46,45.0,32.9,138.06,31.85,24.65,36.40,1.05,-26.38,-8.16,-47,563,-923,26.8,22.8,3.8,26.7,1.4,-30.6,5.73,2.38,-27.6,30.3
2012-08-03 01:04:00,0.0,1.9096,0.0011,380.01,0.51,39.2,32.8,138.06,31.85,24.65,36.39,0.97,-26.39,-9.43,-47,562,-923,26.8,21.9,3.2,26.7,1.4,-30.7,5.73,2.38,-27.6,30.3
2012-08-03 01:05:00,0.0,1.9102,0.0011,379.91,0.45,36.1,28.8,138.06,31.85,24.65,36.41,1.03,-26.39,-10.47,-47,563,-923,26.8,22.0,3.3,26.7,1.4,-30.6,5.73,2.38,-27.6,30.3
2012-08-03 01:06:00,0.0,1.9107,0.0010,380.07,0.36,31.8,30.1,138.06,31.84,24.65,36.39,1.08,-26.40,-11.57,-47,563,-923,26.8,22.0,3.3,26.7,1.4,-30.7,5.73,2.39,-27.6,30.2
2012-08-03 01:07:00,0.0,1.9113,0.0010,379.91,0.56,41.2,38.2,138.06,31.84,24.65,36.39,1.03,-26.41,-12.65,-47,563,-923,26.8,22.5,3.6,26.7,1.4,-30.6,5.73,2.39,-27.6,30.2
2012-08-03 01:08:00,0.0,1.9109,0.0011,379.18,0.62,37.9,29.5,138.06,31.83,24.65,36.40,0.98,-26.42,-13.56,-47,562,-923,26.8,22.5,3.6,26.7,1.4,-30.6,5.73,2.38,-27.6,30.2
2012-08-03 01:09:00,0.0,1.9098,0.0013,380.19,0.42,49.2,31.5,138.06,31.83,24.65,36.38,1.03,-26.43,-14.39,-47,562,-923,26.8,22.1,3.4,26.7,1.4,-30.7,5.73,2.38,-27.6,30.3
2012-08-03 01:10:00,0.0,1.9099,0.0011,379.77,0.48,34.5,31.8,138.06,31.83,24.65,36.40,1.07,-26.44,-15.28,-47,563,-923,26.8,22.3,3.5,26.7,1.4,-30.7,5.73,2.37,-27.6,30.3
2012-08-03 01:11:00,0.0,1.9099,0.0010,379.76,0.44,43.1,34.8,138.06,31.82,24.65,36.39,1.01,-26.45,-16.14,-47,562,-923,26.8,22.3,3.5,26.7,1.3,-30.8,5.73,2.37,-27.6,30.3
2012-08-03 01:12:00,0.0,1.9106,0.0013,379.66,0.45,41.1,30.7,138.06,31.82,24.65,36.40,0.97,-26.47,-16.85,-47,562,-923,26.8,22.2,3.4,26.7,1.3,-30.9,5.73,2.38,-27.6,30.3
2012-08-03 01:13:00,0.0,1.9101,0.0009,379.72,0.45,35.8,31.5,138.06,31.82,24.65,36.40,1.02,-26.47,-17.59,-47,562,-923,26.8,22.3,3.5,26.7,1.3,-30.9,5.73,2.39,-27.6,30.2
2012-08-03 01:14:00,0.0,1.9100,0.0011,380.05,0.33,40.1,33.0,138.06,31.81,24.65,36.39,1.06,-26.48,-18.30,-47,562,-923,26.8,22.4,3.5,26.7,1.3,-30.8,5.73,2.39,-27.6,30.2
2012-08-03 01:15:00,0.0,1.9096,0.0010,379.79,0.46,44.5,33.7,138.06,31.81,24.65,36.39,1.04,-26.50,-18.98,-47,562,-923,26.8,22.5,3.6,26.7,1.3,-30.9,5.73,2.39,-27.6,30.2
2012-08-03 01:16:00,0.0,1.9097,0.0009,379.63,0.48,36.5,33.6,138.06,31.81,24.65,36.40,0.96,-26.51,-19.61,-47,562,-923,26.8,22.5,3.6,26.7,1.3,-30.9,5.73,2.38,-27.6,30.2
2012-08-03 01:17:00,0.0,1.9105,0.0013,379.74,0.46,32.5,27.4,138.06,31.80,24.65,36.40,1.00,-26.52,-20.22,-47,562,-923,26.8,22.4,3.5,26.7,1.3,-30.9,5.73,2.38,-27.6,30.2
2012-08-03 01:18:00,0.0,1.9107,0.0011,379.35,0.42,38.4,30.9,138.06,31.80,24.65,36.40,1.06,-26.52,-20.77,-47,563,-923,26.8,22.9,3.8,26.6,1.3,-30.9,5.73,2.37,-27.6,30.1
2012-08-03 01:19:00,0.0,1.9112,0.0010,379.18,0.41,35.3,27.7,138.06,31.80,24.65,36.39,1.05,-26.54,-21.29,-47,562,-923,26.8,23.5,4.2,26.6,1.3,-30.9,5.73,2.37,-27.6,30.1
2012-08-03 01:20:00,0.0,1.9109,0.0012,378.91,0.45,48.3,33.8,138.06,31.80,24.65,36.40,0.98,-26.55,-21.79,-47,562,-923,26.8,24.0,4.5,26.6,1.3,-30.9,5.73,2.38,-27.6,30.2
2012-08-03 01:21:00,0.0,1.9107,0.0012,379.33,0.53,44.3,35.1,138.06,31.79,24.65,36.40,0.97,-26.56,-22.25,-47,562,-923,26.7,22.5,3.6,26.7,1.3,-30.9,5.73,2.38,-27.6,30.2
2012-08-03 01:22:00,0.0,1.9106,0.0010,379.83,0.37,40.0,27.1,138.06,31.79,24.65,36.39,1.04,-26.57,-22.69,-47,562,-923,26.8,22.5,3.6,26.6,1.3,-30.9,5.73,2.39,-27.6,30.2
2012-08-03 01:23:00,0.0,1.9103,0.0011,379.77,0.49,44.0,32.9,138.06,31.78,24.65,36.40,1.06,-26.58,-23.10,-47,562,-923,26.7,22.9,3.8,26.6,1.3,-30.9,5.73,2.39,-27.6,30.3
2012-08-03 01:24:00,0.0,1.9114,0.0010,379.39,0.40,46.2,30.1,138.06,31.78,24.65,36.40,1.02,-26.60,-23.48,-47,562,-923,26.7,22.9,3.8,26.6,1.3,-30.9,5.73,2.39,-27.5,30.2
2012-08-03 01:25:00,0.0,1.9111,0.0009,379.76,0.38,47.2,31.2,138.06,31.78,24.65,36.40,0.97,-26.61,-23.85,-47,562,-923,26.7,22.4,3.5,26.6,1.3,-30.9,5.73,2.39,-27.5,30.1
2012-08-03 01:26:00,0.0,1.9108,0.0009,379.58,0.48,44.6,33.9,138.06,31.78,24.65,36.40,0.99,-26.62,-24.19,-47,562,-923,26.7,22.4,3.5,26.6,1.3,-30.9,5.73,2.38,-27.5,30.2
2012-08-03 01:27:00,0.0,1.9101,0.0013,379.66,0.49,39.1,29.2,138.06,31.77,24.65,36.40,1.04,-26.63,-24.52,-47,562,-923,26.7,22.6,3.6,26.6,1.3,-30.9,5.73,2.38,-27.5,30.2
2012-08-03 01:28:00,0.0,1.9099,0.0012,379.71,0.47,45.1,33.2,138.06,31.77,24.65,36.40,1.06,-26.64,-24.83,-47,562,-923,26.7,22.9,3.8,26.6,1.3,-30.9,5.73,2.38,-27.5,30.2
2012-08-03 01:29:00,0.0,1.9090,0.0011,379.87,0.39,43.0,29.3,138.06,31.77,24.65,36.41,1.00,-26.65,-25.11,-47,562,-923,26.7,22.6,3.6,26.6,1.3,-30.9,5.73,2.38,-27.5,30.2
2012-08-03 01:30:00,0.0,1.9092,0.0010,380.16,0.43,33.3,29.7,138.06,31.77,24.65,36.40,0.96,-26.66,-25.39,-47,562,-923,26.8,21.7,3.0,26.6,1.3,-31.1,5.73,2.38,-27.5,30.2
2012-08-03 01:31:00,0.0,1.9096,0.0010,380.10,0.45,35.9,26.8,138.06,31.77,24.65,36.40,1.00,-26.67,-25.64,-47,562,-923,26.8,21.9,3.2,26.6,1.3,-31.1,5.73,2.38,-27.5,30.2
2012-08-03 01:32:00,0.0,1.9094,0.0010,379.91,0.44,48.9,38.2,138.06,31.76,24.65,36.41,1.03,-26.67,-25.88,-47,562,-923,26.7,21.9,3.2,26.6,1.3,-31.1,5.73,2.39,-27.5,30.2
2012-08-03 01:33:00,0.0,1.9095,0.0011,379.60,0.48,47.5,33.9,138.06,31.76,24.65,36.40,1.06,-26.68,-26.10,-47,562,-923,26.8,22.8,3.8,26.6,1.3,-31.1,5.73,2.39,-27.5,30.2
2012-08-03 01:34:00,0.0,1.9099,0.0013,380.15,0.51,41.9,31.8,138.06,31.76,24.65,36.39,1.00,-26.69,-26.31,-47,562,-923,26.7,21.5,2.9,26.6,1.3,-31.0,5.73,2.39,-27.5,30.1
2012-08-03 01:35:00,0.0,1.9095,0.0011,380.31,0.40,39.6,34.3,138.06,31.76,24.64,36.40,0.96,-26.70,-26.52,-47,562,-923,26.8,21.4,2.8,26.6,1.3,-31.1,5.73,2.39,-27.5,30.2
2012-08-03 01:36:00,0.0,1.9094,0.0013,380.39,0.43,39.9,32.1,138.06,31.76,24.65,36.41,0.99,-26.70,-26.70,-47,562,-923,26.7,21.4,2.8,26.6,1.3,-31.0,5.73,2.39,-27.5,30.2
2012-08-03 01:37:00,0.0,1.9098,0.0011,380.04,0.46,35.1,30.4,138.06,31.75,24.65,36.40,1.02,-26.71,-26.48,-47,562,-923,26.7,22.0,3.3,26.6,1.3,-31.1,5.73,2.39,-27.5,30.2
2012-08-03 01:38:00,0.0,1.9097,0.0010,380.03,0.43,51.1,35.0,138.06,31.75,24.65,36.40,1.05,-26.72,-26.47,-47,562,-923,26.7,22.0,3.3,26.6,1.3,-31.1,5.73,2.38,-27.5,30.2
2012-08-03 01:39:00,0.0,1.9092,0.0012,380.08,0.47,42.0,28.6,138.06,31.75,24.65,36.41,1.06,-26.73,-26.62,-47,563,-923,26.7,21.8,3.1,26.6,1.3,-31.1,5.73,2.38,-27.5,30.2
2012-08-03 01:40:00,0.0,1.9089,0.0010,380.08,0.38,46.4,32.5,138.06,31.75,24.65,36.41,0.92,-26.73,-26.70,-47,562,-923,26.7,22.0,3.2,26.6,1.3,-31.1,5.73,2.38,-27.5,30.2
2012-08-03 01:41:00,0.0,1.9097,0.0012,379.96,0.46,40.6,33.4,138.06,31.74,24.65,36.41,0.97,-26.74,-26.45,-47,562,-923,26.7,22.2,3.4,26.6,1.3,-31.1,5.73,2.38,-27.5,30.2
2012-08-03 01:42:00,0.0,1.9098,0.0011,380.08,0.48,36.7,30.7,138.06,31.74,24.65,36.40,1.01,-26.74,-26.54,-47,563,-923,26.7,21.9,3.2,26.6,1.3,-31.1,5.73,2.38,-27.5,30.1
2012-08-03 01:43:00,0.0,1.9098,0.0009,380.11,0.42,44.0,32.0,138.06,31.74,24.65,36.40,1.01,-26.75,-26.69,-47,563,-923,26.7,22.1,3.3,26.6,1.3,-31.1,5.73,2.38,-27.5,30.1
2012-08-03 01:44:00,0.0,1.9101,0.0013,379.97,0.44,40.9,30.5,138.06,31.74,24.65,36.41,0.95,-26.76,-26.64,-47,563,-923,26.7,22.5,3.6,26.6,1.3,-31.1,5.73,2.39,-27.5,30.1
2012-08-03 01:45:00,0.0,1.9097,0.0012,379.88,0.43,42.7,34.7,138.06,31.73,24.65,36.41,1.04,-26.76,-26.48,-47,563,-923,26.7,22.3,3.4,26.6,1.3,-31.1,5.73,2.39,-27.5,30.1
2012-08-03 01:46:00,0.0,1.9101,0.0010,379.63,0.47,54.5,37.2,138.06,31.73,24.65,36.40,1.04,-26.77,-26.60,-47,563,-923,26.7,22.3,3.4,26.6,1.3,-31.1,5.73,2.39,-27.5,30.2
2012-08-03 01:47:00,0.0,1.9097,0.0010,380.00,0.38,38.8,29.8,138.06,31.73,24.65,36.41,0.94,-26.72,-26.76,-47,563,-923,26.7,22.2,3.4,26.6,1.3,-31.1,5.73,2.39,-27.5,30.2
2012-08-03 01:48:00,0.0,1.9103,0.0010,379.63,0.51,46.0,32.5,138.06,31.73,24.65,36.40,0.98,-25.68,-26.93,-47,563,-923,26.7,22.3,3.4,26.6,1.3,-31.3,5.73,2.39,-27.5,30.1
2012-08-03 01:49:00,0.0,1.9103,0.0013,380.09,0.45,35.7,26.3,138.06,31.72,24.65,36.40,0.90,-23.82,-27.04,-47,563,-923,26.7,21.8,3.1,26.6,1.4,-30.2,5.73,2.39,-27.5,30.2
2012-08-03 01:50:00,0.0,1.9106,0.0012,380.11,0.39,40.8,30.5,138.06,31.72,24.65,36.41,0.84,-21.87,-27.10,-47,563,-923,26.7,21.9,3.2,26.6,1.6,-29.2,5.73,2.38,-27.5,30.2
2012-08-03 01:51:00,0.0,1.9105,0.0010,379.81,0.46,39.6,27.0,138.06,31.72,24.65,36.41,0.85,-19.97,-27.12,-47,563,-923,26.7,22.4,3.5,26.6,1.7,-28.6,5.73,2.38,-27.5,30.2
2012-08-03 01:52:00,0.0,1.9106,0.0012,379.93,0.42,32.8,30.2,138.06,31.72,24.65,36.40,0.89,-18.15,-27.12,-47,563,-923,26.8,21.9,3.2,26.6,1.7,-28.5,5.73,2.38,-27.5,30.2
2012-08-03 01:53:00,0.0,1.9109,0.0012,380.06,0.36,49.1,33.6,138.06,31.72,24.65,36.40,0.91,-16.42,-27.10,-47,563,-923,26.8,22.0,3.2,26.7,1.7,-28.6,5.73,2.38,-27.5,30.2
2012-08-03 01:54:00,0.0,1.9109,0.0011,379.70,0.42,44.0,37.1,138.06,31.72,24.65,36.40,0.93,-14.77,-27.08,-47,563,-923,26.8,22.4,3.5,26.7,1.6,-28.7,5.73,2.38,-27.5,30.2
2012-08-03 01:55:00,0.0,1.9106,0.0008,380.04,0.44,44.1,36.7,138.06,31.72,24.65,36.40,0.94,-13.21,-27.06,-47,563,-923,26.8,22.2,3.4,26.7,1.6,-28.8,5.73,2.39,-27.5,30.3
2012-08-03 01:56:00,0.0,1.9102,0.0010,379.63,0.51,44.6,31.8,138.06,31.72,24.65,36.41,0.94,-11.73,-27.03,-47,563,-923,26.8,22.7,3.7,26.7,1.6,-29.1,5.73,2.39,-27.5,30.2
2012-08-03 01:57:00,0.0,1.9105,0.0011,380.07,0.41,38.0,31.4,138.06,31.72,24.64,36.40,0.94,-10.33,-27.01,-47,563,-923,26.8,21.9,3.2,26.7,1.6,-29.1,5.73,2.39,-27.5,30.2
2012-08-03 01:58:00,0.0,1.9099,0.0011,380.06,0.39,42.7,33.2,138.06,31.72,24.65,36.41,0.92,-9.00,-26.98,-47,563,-923,26.8,21.9,3.2,26.7,1.5,-29.3,5.73,2.39,-27.5,30.2
2012-08-03 01:59:00,0.0,1.9100,0.0011,380.03,0.51,45.2,28.0,138.06,31.72,24.65,36.41,0.90,-7.75,-26.95,-47,563,-923,26.8,21.8,3.1,26.7,1.5,-29.4,5.73,2.38,-27.4,30.2
2012-08-03 02:00:00,0.0,1.9095,0.0010,380.27,0.35,46.2,34.7,138.06,31.72,24.65,36.40,0.89,-6.55,-26.92,-47,563,-923,26.8,21.8,3.2,26.8,1.5,-29.4,5.73,2.37,-27.4,30.3
2012-08-03 02:01:00,0.0,1.9102,0.0011,379.55,0.50,54.3,35.0,138.05,31.72,24.65,36.40,0.89,-5.41,-26.89,-47,563,-923,26.8,22.6,3.7,26.8,1.5,-29.6,5.73,2.38,-27.4,30.3
2012-08-03 02:02:00,0.0,1.9099,0.0010,379.74,0.57,52.4,33.7,138.05,31.72,24.65,36.40,0.91,-4.32,-26.87,-47,563,-923,26.8,22.5,3.6,26.8,1.5,-29.6,5.73,2.38,-27.4,30.3
2012-08-03 02:03:00,0.0,1.9097,0.0009,380.35,0.46,42.1,29.3,138.05,31.72,24.65,36.40,0.91,-3.28,-26.84,-47,563,-923,26.8,21.9,3.2,26.8,1.5,-29.8,5.73,2.39,-27.4,30.4
2012-08-03 02:04:00,0.0,1.9102,0.0011,380.14,0.40,49.2,34.6,138.05,31.72,24.65,36.40,0.93,-2.30,-26.82,-47,563,-923,26.8,22.1,3.4,26.8,1.5,-29.8,5.73,2.39,-27.4,30.4
2012-08-03 02:05:00,0.0,1.9098,0.0011,379.80,0.45,48.4,33.1,138.06,31.72,24.65,36.40,0.93,-1.38,-26.79,-47,563,-923,26.8,22.5,3.6,26.8,1.4,-30.0,5.73,2.39,-27.4,30.4
2012-08-03 02:06:00,0.0,1.9102,0.0012,379.91,0.42,52.6,39.3,138.05,31.72,24.65,36.40,0.94,-0.50,-26.77,-47,563,-923,26.9,22.0,3.3,26.8,1.4,-30.0,5.73,2.38,-27.3,30.4
2012-08-03 02:07:00,0.0,1.9107,0.0014,380.28,0.48,57.7,33.1,138.05,31.72,24.65,36.40,0.94,0.34,-26.74,-47,563,-923,26.9,21.7,3.2,26.8,1.4,-30.0,5.73,2.37,-27.3,30.4
2012-08-03 02:08:00,0.0,1.9111,0.0011,380.00,0.43,49.4,29.6,138.06,31.72,24.65,36.41,0.94,1.13,-26.71,-47,563,-923,26.9,21.8,3.2,26.8,1.4,-30.1,5.73,2.37,-27.3,30.3
2012-08-03 02:09:00,0.0,1.9116,0.0011,379.77,0.41,48.5,33.1,138.05,31.72,24.65,36.41,0.94,1.86,-26.69,-47,563,-923,26.9,22.1,3.4,26.8,1.4,-30.2,5.73,2.38,-27.3,30.4
2012-08-03 02:10:00,0.0,1.9114,0.0011,379.70,0.36,50.4,33.7,138.05,31.72,24.65,36.40,0.95,2.52,-26.67,-47,563,-923,26.9,22.3,3.6,26.8,1.4,-30.2,5.73,2.39,-27.3,30.4
2012-08-03 02:11:00,0.0,1.9111,0.0010,379.68,0.48,49.4,31.9,138.05,31.72,24.65,36.41,0.95,2.86,-26.64,-47,563,-923,26.9,22.0,3.3,26.8,1.4,-30.2,5.73,2.39,-27.3,30.4
2012-08-03 02:12:00,0.0,1.9116,0.0011,380.09,0.42,44.9,35.9,138.05,31.72,24.65,36.41,0.95,3.00,-26.62,-47,563,-923,26.9,21.9,3.3,26.8,1.4,-30.3,5.73,2.39,-27.3,30.4
2012-08-03 02:13:00,0.0,1.9113,0.0012,379.96,0.45,54.9,34.7,138.05,31.72,24.65,36.40,0.94,3.31,-26.60,-47,563,-923,26.9,21.9,3.3,26.8,1.4,-30.4,5.73,2.38,-27.3,30.4
2012-08-03 02:14:00,0.0,1.9118,0.0010,379.96,0.36,51.0,32.4,138.05,31.72,24.65,36.41,0.94,3.80,-26.57,-47,563,-923,26.9,21.7,3.2,26.8,1.4,-30.4,5.73,2.37,-27.3,30.4
2012-08-03 02:15:00,0.0,1.9115,0.0011,380.11,0.47,60.5,29.9,138.05,31.72,24.65,36.40,0.94,4.33,-26.55,-47,563,-923,26.9,21.7,3.2,26.8,1.4,-30.5,5.73,2.37,-27.3,30.4
2012-08-03 02:16:00,0.0,1.9118,0.0009,379.96,0.43,55.9,32.6,138.05,31.72,24.65,36.40,0.93,4.84,-26.54,-47,563,-923,26.9,21.6,3.1,26.8,1.4,-30.5,5.73,2.38,-27.3,30.4
2012-08-03 02:17:00,0.0,1.9120,0.0010,380.01,0.47,46.2,31.7,138.05,31.73,24.64,36.41,0.92,5.30,-26.51,-47,563,-923,26.9,21.7,3.2,26.8,1.4,-30.6,5.73,2.39,-27.3,30.4
2012-08-03 02:18:00,0.0,1.9120,0.0009,379.59,0.56,59.9,38.1,138.05,31.72,24.65,36.40,0.93,5.77,-26.50,-47,563,-923,26.9,22.9,3.9,26.8,1.4,-30.5,5.73,2.39,-27.3,30.4
2012-08-03 02:19:00,0.0,1.9120,0.0013,379.60,0.61,56.7,30.7,138.05,31.72,24.65,36.40,0.93,6.26,-26.48,-47,563,-923,26.9,22.2,3.5,26.8,1.4,-30.6,5.73,2.39,-27.3,30.4
2012-08-03 02:20:00,0.0,1.9118,0.0013,379.89,0.47,53.9,35.8,138.05,31.72,24.65,36.40,0.92,6.77,-26.46,-47,563,-923,26.9,22.0,3.4,26.8,1.4,-30.6,5.73,2.38,-27.3,30.4